Flag Weather past 2 weeks in San Marino, San Marino

Now
50 °F

Fog.


Feels Like: N/A
Forecast: 42 / 57 °F
Wind: N/A

Location: Rimini Airport

Current Time: Oct 31, 2014 at 8:13:22 AM

Latest Report: Oct 31, 2014 at 7:45 AM


Visibility: 3 mi

Pressure: 30.27 "Hg

Humidity: 94%

Dew point: 48 °F

Location of San MarinoLocation

Historic Weather in San Marino — Graph

°F

San Marino temperature yesterday

Maximum temperature yesterday: 63 °F (at 1:15 PM)
Minimum temperature yesterday: 46 °F (at 4:45 AM)
Average temperature yesterday: 54 °F

Past Weeks' High & Low Weather Summary

 TemperatureHumidityPressure
High79 °F (Oct 17, 12:15 PM)100% (Oct 18, 12:45 AM)30.30 "Hg (Oct 18, 12:45 AM)
Low46 °F (Oct 30, 4:45 AM)34% (Oct 22, 7:45 AM)29.50 "Hg (Oct 22, 3:45 AM)
Average62 °F81%30.06 "Hg
* Reported Oct 16 7:15 AM — Oct 31 6:45 AM, San Marino, Weather by CustomWeather, © 2014

Note: Actual official high and low records may vary slightly from our data, if they occured in-between our weather recording intervals... More about our weather records

Advertising

San Marino weather history for previous 24 hours

 ConditionsComfort  
Time TempWeatherWind HumidityBarometerVisibility
6:45 AM
Oct 31
50 °FClear.N/A94%30.27 "Hg4 mi
6:15 AM50 °FClear.N/A94%30.27 "Hg4 mi
5:45 AM50 °FClear.N/A94%30.27 "Hg4 mi
5:15 AM50 °FClear.N/A94%30.27 "Hg4 mi
4:45 AM48 °FClear.N/A100%30.27 "Hg4 mi
4:15 AM48 °FClear.N/A100%30.27 "Hg4 mi
3:15 AM48 °FClear.N/A100%30.27 "Hg4 mi
2:45 AM48 °FClear.N/A100%30.27 "Hg4 mi
2:15 AM50 °FClear.N/A94%30.27 "Hg4 mi
1:45 AM50 °FClear.N/A100%30.27 "Hg4 mi
1:15 AM50 °FClear.N/A100%30.27 "Hg4 mi
12:15 AM52 °FClear.N/A100%30.27 "Hg4 mi
11:45 PM
Oct 30
52 °FClear.N/A100%30.27 "Hg4 mi
11:15 PM52 °FClear.N/A100%30.27 "Hg4 mi
10:45 PM52 °FClear.N/A94%30.27 "Hg4 mi
10:15 PM52 °FClear.N/A94%30.27 "Hg4 mi
9:45 PM52 °FClear.N/A94%30.27 "Hg4 mi
9:15 PM52 °FClear.N/A94%30.27 "Hg4 mi
8:45 PM52 °FClear.N/A94%30.24 "Hg4 mi
8:15 PM52 °FClear.N/A100%30.24 "Hg4 mi
7:45 PM52 °FClear.N/A94%30.24 "Hg4 mi
7:15 PM52 °FClear.N/A94%30.24 "Hg4 mi
6:45 PM55 °FClear.N/A88%30.24 "Hg4 mi
6:15 PM55 °FClear.N/A82%30.21 "Hg4 mi
5:45 PM57 °FClear.N/A82%30.21 "Hg4 mi
5:15 PM61 °FClear.N/A72%30.21 "Hg4 mi
4:45 PM61 °FClear.N/A68%30.21 "Hg4 mi
4:15 PM61 °FClear.N/A68%30.21 "Hg4 mi
3:45 PM63 °FClear.N/A64%30.21 "Hg4 mi
3:15 PM63 °FClear.N/A64%30.21 "Hg4 mi
2:45 PM63 °FClear.N/A64%30.21 "Hg4 mi
2:15 PM63 °FClear.N/A59%30.21 "Hg4 mi
1:45 PM63 °FClear.N/A59%30.21 "Hg4 mi
1:15 PM63 °FClear.N/A59%30.24 "Hg4 mi
12:45 PM61 °FClear.N/A63%30.24 "Hg4 mi
12:15 PM61 °FPassing clouds.N/A63%30.24 "Hg4 mi
11:45 AM59 °FScattered clouds.N/A68%30.24 "Hg4 mi
11:15 AM59 °FScattered clouds.N/A68%30.24 "Hg4 mi
10:45 AM59 °FClear.N/A68%30.21 "Hg4 mi
10:15 AM59 °FClear.N/A68%30.21 "Hg4 mi
9:45 AM57 °FClear.N/A72%30.21 "Hg4 mi
9:15 AM55 °FClear.N/A77%30.21 "Hg4 mi
8:45 AM54 °FClear.N/A88%30.21 "Hg4 mi
8:15 AM50 °FClear.N/A100%30.21 "Hg4 mi
Weather by CustomWeather, © 2014

See weather overviewHow to use our weather pages